• In Germany
  • List of Countries
  • For 7 days
  • Water Temperature
  • Satellite Maps
  • Weather Map
  • Weather Widgets
  • user-avatar
    Login

    Hourly Weather Albany

    Today, 26 July, Wednesday

    Time Temperature Precipitation Wind Pressure Humidity
    00:00 +13°C° 0.1 mm 8 mps 757 mmHg 77%
    01:00 +13°C° 0.1 mm 8 mps 756 mmHg 78%
    02:00 +13°C° 0 mm 8 mps 756 mmHg 79%
    03:00 +13°C° 0.2 mm 8 mps 755 mmHg 81%
    04:00 +13°C° 0.2 mm 8 mps 755 mmHg 83%
    05:00 +13°C° 0.2 mm 8 mps 755 mmHg 85%
    06:00 +13°C° 0.4 mm 8 mps 755 mmHg 86%
    07:00 +13°C° 0.4 mm 8 mps 755 mmHg 88%
    08:00 +13°C° 0.4 mm 8 mps 755 mmHg 89%
    09:00 +15°C° 0.4 mm 8 mps 755 mmHg 84%
    10:00 +16°C° 0.4 mm 9 mps 755 mmHg 78%
    11:00 +17°C° 0.4 mm 9 mps 755 mmHg 72%
    12:00 +17°C° 0.2 mm 10 mps 756 mmHg 69%
    13:00 +17°C° 0.2 mm 10 mps 756 mmHg 65%
    14:00 +17°C° 0.2 mm 10 mps 756 mmHg 62%
    15:00 +16°C° 0 mm 9 mps 756 mmHg 62%
    16:00 +15°C° 0 mm 9 mps 757 mmHg 61%
    17:00 +13°C° 0 mm 8 mps 757 mmHg 61%
    18:00 +12°C° 0 mm 8 mps 758 mmHg 64%
    19:00 +11°C° 0 mm 7 mps 759 mmHg 68%
    20:00 +10°C° 0 mm 6 mps 759 mmHg 71%
    21:00 +10°C° 0 mm 6 mps 760 mmHg 73%
    22:00 +10°C° 0 mm 5 mps 760 mmHg 75%
    23:00 +9°C° 0 mm 5 mps 760 mmHg 76%

    Tomorrow, 27 July, Thursday

    Time Temperature Precipitation Wind Pressure Humidity
    00:00 +10°C° 0 mm 4 mps 760 mmHg 79%
    01:00 +8°C° 0 mm 4 mps 760 mmHg 81%
    02:00 +9°C° 0 mm 3 mps 760 mmHg 83%
    03:00 +8°C° 0 mm 4 mps 759 mmHg 84%
    04:00 +7°C° 0 mm 4 mps 759 mmHg 85%
    05:00 +7°C° 0 mm 4 mps 758 mmHg 86%
    06:00 +7°C° 0 mm 5 mps 758 mmHg 83%
    07:00 +7°C° 0 mm 6 mps 757 mmHg 80%
    08:00 +8°C° 0 mm 6 mps 757 mmHg 77%
    09:00 +10°C° 0 mm 7 mps 757 mmHg 73%
    10:00 +14°C° 0 mm 7 mps 756 mmHg 69%
    11:00 +16°C° 0 mm 8 mps 756 mmHg 65%
    12:00 +17°C° 0 mm 8 mps 754 mmHg 65%
    13:00 +18°C° 0 mm 8 mps 753 mmHg 65%
    14:00 +18°C° 0 mm 9 mps 751 mmHg 66%
    15:00 +18°C° 0 mm 9 mps 751 mmHg 67%
    16:00 +18°C° 0 mm 9 mps 750 mmHg 69%
    17:00 +18°C° 0 mm 9 mps 750 mmHg 70%
    18:00 +18°C° 0.2 mm 10 mps 749 mmHg 71%
    19:00 +17°C° 0.2 mm 10 mps 749 mmHg 73%
    20:00 +17°C° 0.2 mm 11 mps 749 mmHg 75%
    21:00 +16°C° 1.7 mm 11 mps 748 mmHg 79%
    22:00 +14°C° 1.7 mm 11 mps 748 mmHg 84%
    23:00 +13°C° 1.7 mm 11 mps 748 mmHg 88%

    Day after tomorrow, 28 July, Friday

    Time Temperature Precipitation Wind Pressure Humidity
    00:00 +12°C° 1.3 mm 10 mps 748 mmHg 87%
    01:00 +12°C° 1.3 mm 10 mps 748 mmHg 86%
    02:00 +11°C° 1.3 mm 9 mps 748 mmHg 85%
    03:00 +11°C° 0 mm 9 mps 748 mmHg 83%
    04:00 +11°C° 0 mm 9 mps 748 mmHg 81%
    05:00 +10°C° 0 mm 9 mps 747 mmHg 79%
    06:00 +9°C° 0.2 mm 10 mps 747 mmHg 79%
    07:00 +11°C° 0.2 mm 10 mps 748 mmHg 78%
    08:00 +11°C° 0.2 mm 11 mps 748 mmHg 78%
    09:00 +10°C° 0.3 mm 12 mps 748 mmHg 74%
    10:00 +12°C° 0.3 mm 12 mps 748 mmHg 70%
    11:00 +12°C° 0.3 mm 13 mps 749 mmHg 66%
    12:00 +12°C° 0.3 mm 13 mps 748 mmHg 63%
    13:00 +12°C° 0.3 mm 13 mps 748 mmHg 60%
    14:00 +12°C° 0.3 mm 13 mps 748 mmHg 57%
    15:00 +12°C° 0.2 mm 12 mps 749 mmHg 58%
    16:00 +10°C° 0.2 mm 12 mps 749 mmHg 58%
    17:00 +9°C° 0.2 mm 11 mps 749 mmHg 59%
    18:00 +8°C° 0.3 mm 11 mps 750 mmHg 63%
    19:00 +8°C° 0.3 mm 10 mps 751 mmHg 68%
    20:00 +7°C° 0.3 mm 10 mps 751 mmHg 72%
    21:00 +7°C° 0.5 mm 10 mps 751 mmHg 75%
    22:00 +7°C° 0.5 mm 10 mps 752 mmHg 77%
    23:00 +6°C° 0.5 mm 10 mps 752 mmHg 79%

    29 July, Saturday

    Time Temperature Precipitation Wind Pressure Humidity
    00:00 +6°C° 0.8 mm 10 mps 752 mmHg 80%
    01:00 +6°C° 0.8 mm 11 mps 752 mmHg 80%
    02:00 +6°C° 0.8 mm 11 mps 752 mmHg 81%
    03:00 +6°C° 0.4 mm 11 mps 752 mmHg 79%
    04:00 +6°C° 0.4 mm 11 mps 753 mmHg 77%
    05:00 +6°C° 0.4 mm 11 mps 753 mmHg 76%
    06:00 +7°C° 0.2 mm 11 mps 754 mmHg 75%
    07:00 +7°C° 0.2 mm 11 mps 754 mmHg 74%
    08:00 +7°C° 0.2 mm 10 mps 755 mmHg 73%
    09:00 +8°C° 0.3 mm 10 mps 755 mmHg 74%
    10:00 +8°C° 0.3 mm 10 mps 755 mmHg 74%
    11:00 +9°C° 0.3 mm 10 mps 755 mmHg 75%
    12:00 +9°C° 0.4 mm 10 mps 755 mmHg 72%
    13:00 +11°C° 0.4 mm 10 mps 755 mmHg 69%
    14:00 +12°C° 0.4 mm 10 mps 754 mmHg 67%
    15:00 +11°C° 0.3 mm 10 mps 754 mmHg 70%
    16:00 +10°C° 0.3 mm 9 mps 754 mmHg 73%
    17:00 +10°C° 0.3 mm 8 mps 754 mmHg 76%
    18:00 +8°C° 1 mm 9 mps 754 mmHg 78%
    19:00 +8°C° 1 mm 10 mps 754 mmHg 81%
    20:00 +8°C° 1 mm 10 mps 754 mmHg 83%
    21:00 +7°C° 0.4 mm 10 mps 754 mmHg 82%
    22:00 +7°C° 0.4 mm 9 mps 755 mmHg 82%
    23:00 +7°C° 0.4 mm 9 mps 755 mmHg 82%

    30 July, Sunday

    Time Temperature Precipitation Wind Pressure Humidity
    00:00 +7°C° 0.6 mm 8 mps 755 mmHg 83%
    01:00 +7°C° 0.6 mm 8 mps 755 mmHg 84%
    02:00 +8°C° 0.6 mm 7 mps 756 mmHg 86%
    03:00 +8°C° 0.6 mm 7 mps 757 mmHg 86%
    04:00 +8°C° 0.6 mm 7 mps 757 mmHg 87%
    05:00 +8°C° 0.6 mm 7 mps 758 mmHg 88%
    06:00 +8°C° 0.1 mm 6 mps 759 mmHg 84%
    07:00 +8°C° 0.1 mm 6 mps 760 mmHg 81%
    08:00 +9°C° 0.1 mm 6 mps 761 mmHg 77%
    09:00 +9°C° 0 mm 5 mps 761 mmHg 72%
    10:00 +10°C° 0 mm 5 mps 762 mmHg 67%
    11:00 +12°C° 0 mm 4 mps 762 mmHg 63%
    12:00 +13°C° 0 mm 4 mps 762 mmHg 60%
    13:00 +13°C° 0 mm 3 mps 761 mmHg 58%
    14:00 +14°C° 0 mm 3 mps 761 mmHg 56%
    15:00 +14°C° 0 mm 2 mps 761 mmHg 60%
    16:00 +14°C° 0 mm 2 mps 762 mmHg 64%
    17:00 +13°C° 0 mm 2 mps 762 mmHg 68%
    18:00 +11°C° 0 mm 3 mps 762 mmHg 71%
    19:00 +11°C° 0 mm 3 mps 763 mmHg 75%
    20:00 +10°C° 0 mm 4 mps 763 mmHg 78%
    21:00 +10°C° 0 mm 4 mps 762 mmHg 81%
    22:00 +8°C° 0 mm 4 mps 762 mmHg 84%
    23:00 +7°C° 0 mm 5 mps 762 mmHg 88%

    31 July, Monday

    Time Temperature Precipitation Wind Pressure Humidity
    00:00 +7°C° 0 mm 5 mps 761 mmHg 88%
    01:00 +7°C° 0 mm 5 mps 761 mmHg 88%
    02:00 +7°C° 0 mm 5 mps 761 mmHg 88%
    03:00 +7°C° 0 mm 5 mps 760 mmHg 88%
    04:00 +7°C° 0 mm 6 mps 760 mmHg 88%
    05:00 +7°C° 0 mm 6 mps 760 mmHg 88%
    06:00 +7°C° 0 mm 6 mps 759 mmHg 86%
    07:00 +8°C° 0 mm 7 mps 759 mmHg 84%
    08:00 +7°C° 0 mm 8 mps 759 mmHg 82%
    09:00 +10°C° 0 mm 8 mps 758 mmHg 75%
    10:00 +12°C° 0 mm 9 mps 757 mmHg 68%
    11:00 +13°C° 0 mm 10 mps 756 mmHg 61%
    12:00 +14°C° 0.1 mm 10 mps 755 mmHg 62%
    13:00 +14°C° 0.1 mm 10 mps 755 mmHg 63%
    14:00 +15°C° 0.1 mm 9 mps 754 mmHg 64%
    15:00 +12°C° 2.2 mm 9 mps 754 mmHg 73%
    16:00 +11°C° 2.2 mm 8 mps 754 mmHg 82%
    17:00 +9°C° 2.2 mm 8 mps 755 mmHg 91%
    18:00 +9°C° 1 mm 7 mps 755 mmHg 90%
    19:00 +9°C° 1 mm 7 mps 756 mmHg 90%
    20:00 +8°C° 1 mm 6 mps 756 mmHg 89%
    21:00 +8°C° 0.5 mm 7 mps 757 mmHg 88%
    22:00 +8°C° 0.5 mm 7 mps 757 mmHg 87%
    23:00 +8°C° 0.5 mm 7 mps 757 mmHg 86%
    Show more